Weather History for KALM - May, 2013

Change the Weather History Date:

Thursday, May 9, 2013

  Actual Average (WUND) Record (WUND)
Temperature  
Mean Temperature 70 °F -  
Max Temperature 77 °F - - (-1)
Min Temperature 62 °F - - (-1)
Cooling Degree Days 4    
Growing Degree Days 20 (Base 50)    
Moisture  
Dew Point 19 °F    
Average Humidity 14    
Maximum Humidity 22    
Minimum Humidity 11    
Precipitation  
Precipitation 0.00 in - - ()
Sea Level Pressure  
Sea Level Pressure 30.00 in    
Wind  
Wind Speed 5 mph (WNW)    
Max Wind Speed 16 mph    
Max Gust Speed 24 mph    
Visibility 10 miles    
Events      
Averages and records for this station are not official NWS values.
T = Trace of Precipitation, MM = Missing Value Source: NWS Daily Summary

Daily Weather History Graph

Daily Weather History Graph

Search for Another Location

Airport or City:

Trip Planner

Search our weather history database for the weather conditions in past years. The results will help you decide how hot, cold, wet, or windy it might be!

Date:

Astronomy

May. 09, 2013 Rise Set
Actual Time 6:09 AM MDT 7:51 PM MDT
Civil Twilight 5:42 AM MDT 8:18 PM MDT
Nautical Twilight 5:10 AM MDT 8:51 PM MDT
Astronomical Twilight 4:36 AM MDT 9:25 PM MDT
Moon 5:54 AM MDT (5/9) 7:49 PM MDT (5/9)
Length of Visible Light 14h 36m
Length of Day
13h 42m
Waning Crescent, 0% of the Moon is Illuminated
May 9
Waning Crescent
May 9
New
May 17
First Quarter
May 24
Full
May 31
Last Quarter

Hourly Weather History & Observations

Time (MDT) Temp. Dew Point Humidity Pressure Visibility Wind Dir Wind Speed Gust Speed Precip Events Conditions
12:15 AM 66.2 °F 14.0 °F 13% 30.03 in 10.0 mi Calm Calm - N/A   Clear
12:35 AM 64.4 °F 12.2 °F 13% 30.03 in 10.0 mi Calm Calm - N/A   Clear
12:55 AM 62.6 °F 14.0 °F 15% 30.02 in 10.0 mi NE 6.9 mph - N/A   Clear
1:15 AM 62.6 °F 15.8 °F 16% 30.02 in 10.0 mi ENE 4.6 mph - N/A   Clear
1:35 AM 64.4 °F 14.0 °F 14% 30.02 in 10.0 mi NNE 4.6 mph - N/A   Clear
1:55 AM 66.2 °F 14.0 °F 13% 30.01 in 10.0 mi North 3.5 mph - N/A   Clear
2:15 AM 64.4 °F 14.0 °F 14% 30.01 in 10.0 mi NNE 3.5 mph - N/A   Clear
2:35 AM 64.4 °F 14.0 °F 14% 30.01 in 10.0 mi Calm Calm - N/A   Clear
10:15 AM - - N/A% - - North - - N/A   Unknown
10:35 AM 71.6 °F 17.6 °F 13% 30.05 in 10.0 mi SSW 6.9 mph - N/A   Unknown
11:15 AM 71.6 °F 19.4 °F 14% 30.05 in 10.0 mi SW 3.5 mph - N/A   Clear
11:35 AM 73.4 °F 21.2 °F 14% 30.05 in 10.0 mi West 10.4 mph - N/A   Clear
11:55 AM 73.4 °F 19.4 °F 13% 30.04 in 7.0 mi Calm Calm - N/A   Clear
12:15 PM 75.2 °F 19.4 °F 12% 30.04 in 10.0 mi North 11.5 mph - N/A   Clear
12:35 PM 75.2 °F 19.4 °F 12% 30.03 in 10.0 mi NNW 4.6 mph - N/A   Clear
12:55 PM 75.2 °F 19.4 °F 12% 30.03 in 10.0 mi West 16.1 mph - N/A   Clear
1:35 PM 77.0 °F 17.6 °F 11% 30.03 in 10.0 mi NW 8.1 mph 17.3 mph N/A   Clear
1:55 PM 75.2 °F 19.4 °F 12% 30.02 in 10.0 mi North 4.6 mph - N/A   Clear
2:15 PM 75.2 °F 19.4 °F 12% 30.02 in 10.0 mi West 4.6 mph - N/A   Clear
2:35 PM 77.0 °F 19.4 °F 12% 30.00 in 10.0 mi SE 6.9 mph - N/A   Clear
2:55 PM 75.2 °F 19.4 °F 12% 29.99 in 10.0 mi South 3.5 mph - N/A   Clear
3:15 PM 77.0 °F 19.4 °F 12% 29.99 in 10.0 mi WSW 5.8 mph - N/A   Clear
3:35 PM 77.0 °F 19.4 °F 12% 29.98 in 10.0 mi SSW 12.7 mph 19.6 mph N/A   Partly Cloudy
3:55 PM 77.0 °F 19.4 °F 12% 29.97 in 10.0 mi West 4.6 mph 24.2 mph N/A   Clear
4:15 PM 77.0 °F 21.2 °F 12% 29.97 in 10.0 mi WSW 8.1 mph - N/A   Clear
4:35 PM 77.0 °F 21.2 °F 12% 29.97 in 10.0 mi SW 4.6 mph - N/A   Clear
4:55 PM 77.0 °F 21.2 °F 12% 29.96 in 10.0 mi South 4.6 mph - N/A   Clear
5:15 PM 77.0 °F 21.2 °F 12% 29.96 in 10.0 mi NW 3.5 mph - N/A   Clear
5:35 PM 77.0 °F 21.2 °F 12% 29.96 in 10.0 mi South 4.6 mph - N/A   Clear
5:55 PM 77.0 °F 21.2 °F 12% 29.96 in 10.0 mi WNW 3.5 mph - N/A   Clear
6:15 PM 77.0 °F 21.2 °F 12% 29.96 in 10.0 mi SW 6.9 mph - N/A   Clear
6:35 PM 77.0 °F 19.4 °F 12% 29.96 in 10.0 mi SW 8.1 mph - N/A   Partly Cloudy
6:55 PM 75.2 °F 19.4 °F 12% 29.96 in 10.0 mi WSW 6.9 mph - N/A   Partly Cloudy
7:15 PM 75.2 °F 19.4 °F 12% 29.97 in 10.0 mi Calm Calm - N/A   Clear
7:35 PM 73.4 °F 19.4 °F 13% 29.97 in 10.0 mi SW 4.6 mph - N/A   Partly Cloudy
7:55 PM 73.4 °F 19.4 °F 13% 29.98 in 10.0 mi NW 4.6 mph - N/A   Partly Cloudy
8:15 PM 71.6 °F 19.4 °F 14% 29.99 in 10.0 mi Calm Calm - N/A   Mostly Cloudy
8:35 PM 68.0 °F 21.2 °F 17% 30.00 in 10.0 mi West 8.1 mph - N/A   Mostly Cloudy
8:55 PM 69.8 °F 23.0 °F 17% 30.00 in 10.0 mi NW 5.8 mph - N/A   Scattered Clouds
9:15 PM 68.0 °F 23.0 °F 18% 30.01 in 10.0 mi North 4.6 mph - N/A   Partly Cloudy
9:55 PM 66.2 °F 23.0 °F 19% 30.03 in 10.0 mi North 6.9 mph - N/A   Partly Cloudy
10:15 PM 66.2 °F 23.0 °F 19% 30.03 in 10.0 mi NNE 6.9 mph - N/A   Clear
10:35 PM 64.4 °F 23.0 °F 21% 30.03 in 10.0 mi NNE 8.1 mph - N/A   Clear
10:55 PM 62.6 °F 23.0 °F 22% 30.02 in 10.0 mi ENE 8.1 mph - N/A   Clear
11:15 PM 62.6 °F 21.2 °F 20% 30.03 in 10.0 mi NE 6.9 mph - N/A   Clear
11:55 PM 64.4 °F 23.0 °F 21% 30.03 in 10.0 mi NNE 10.4 mph - N/A   Clear